QPF
0.07 0.04 0.02 0.02 0.03 0.04 0.07 0.07 0.10 0.08 0.06 0.06 0.07 0.08 0.10 0.18 0.13 0.08 0.07 0.05 0.05 0.05 0.06 0.08 0.08 0.10 0.11 0.11 0.10 0.10 0.12 0.11 0.08 0.07 0.06 0.05 0.04 0.03 0.03 0.04 0.06 0.06 0.04
0.05 0.03 0.02 0.02 0.03 0.04 0.05 0.06 0.07 0.06 0.06 0.06 0.11 0.16 0.14 0.24 0.18 0.10 0.06 0.04 0.06 0.07 0.06 0.06 0.08 0.10 0.11 0.11 0.09 0.07 0.08 0.08 0.08 0.08 0.08 0.06 0.05 0.04 0.05 0.05 0.07 0.08 0.05
0.04 0.04 0.02 0.02 0.03 0.04 0.05 0.05 0.07 0.07 0.06 0.05 0.06 0.09 0.08 0.10 0.12 0.13 0.10 0.07 0.08 0.10 0.08 0.05 0.06 0.07 0.09 0.10 0.07 0.07 0.07 0.07 0.07 0.07 0.10 0.09 0.06 0.06 0.05 0.04 0.05 0.06 0.06
0.04 0.04 0.02 0.02 0.03 0.06 0.07 0.07 0.08 0.08 0.06 0.06 0.05 0.05 0.04 0.05 0.05 0.06 0.07 0.08 0.10 0.12 0.11 0.07 0.05 0.04 0.07 0.07 0.07 0.07 0.07 0.06 0.07 0.08 0.14 0.13 0.09 0.09 0.07 0.06 0.05 0.07 0.08
0.05 0.04 0.02 0.01 0.02 0.04 0.06 0.08 0.11 0.09 0.07 0.06 0.05 0.04 0.03 0.04 0.04 0.04 0.04 0.05 0.07 0.12 0.13 0.08 0.04 0.03 0.06 0.06 0.05 0.05 0.06 0.07 0.08 0.08 0.15 0.17 0.14 0.12 0.09 0.08 0.06 0.05 0.05
0.03 0.02 0.01 0.01 0.00 0.02 0.06 0.09 0.09 0.08 0.08 0.07 0.04 0.04 0.03 0.03 0.03 0.05 0.04 0.05 0.04 0.05 0.08 0.07 0.04 0.04 0.05 0.06 0.05 0.05 0.05 0.08 0.11 0.13 0.14 0.17 0.14 0.09 0.07 0.07 0.07 0.05 0.04
0.02 0.02 0.01 0.01 0.01 0.01 0.04 0.05 0.05 0.07 0.09 0.08 0.05 0.05 0.04 0.03 0.04 0.04 0.04 0.05 0.04 0.04 0.04 0.04 0.04 0.04 0.05 0.05 0.04 0.05 0.06 0.06 0.09 0.16 0.15 0.15 0.14 0.07 0.04 0.05 0.07 0.07 0.06
0.03 0.02 0.01 0.01 0.01 0.01 0.02 0.03 0.03 0.05 0.08 0.07 0.04 0.04 0.04 0.04 0.05 0.05 0.04 0.03 0.03 0.04 0.03 0.03 0.04 0.04 0.05 0.04 0.04 0.05 0.07 0.05 0.05 0.08 0.12 0.14 0.12 0.07 0.05 0.05 0.06 0.07 0.08
0.02 0.02 0.02 0.02 0.02 0.01 0.01 0.02 0.03 0.05 0.09 0.07 0.04 0.03 0.03 0.03 0.04 0.03 0.03 0.03 0.04 0.06 0.05 0.04 0.04 0.03 0.04 0.04 0.05 0.06 0.06 0.05 0.05 0.06 0.06 0.11 0.09 0.08 0.08 0.07 0.06 0.06 0.07
0.00 0.01 0.03 0.04 0.04 0.04 0.03 0.02 0.03 0.05 0.08 0.08 0.04 0.02 0.02 0.03 0.03 0.04 0.03 0.03 0.04 0.09 0.11 0.07 0.06 0.04 0.05 0.05 0.04 0.05 0.08 0.06 0.05 0.04 0.11 0.11 0.08 0.08 0.08 0.08 0.07 0.06 0.05
0.00 0.01 0.03 0.04 0.05 0.05 0.04 0.03 0.04 0.05 0.06 0.07 0.05 0.02 0.03 0.06 0.05 0.06 0.05 0.04 0.03 0.05 0.08 0.09 0.08 0.06 0.07 0.06 0.04 0.05 0.08 0.09 0.07 0.07 0.13 0.08 0.06 0.06 0.06 0.07 0.08 0.06 0.06
0.03 0.04 0.05 0.05 0.04 0.04 0.03 0.06 0.09 0.08 0.07 0.07 0.09 0.08 0.08 0.09 0.07 0.05 0.05 0.04 0.03 0.04 0.05 0.07 0.09 0.08 0.09 0.08 0.06 0.06 0.08 0.08 0.07 0.07 0.09 0.06 0.06 0.06 0.06 0.06 0.10 0.09 0.08
0.05 0.03 0.03 0.04 0.04 0.04 0.04 0.07 0.11 0.12 0.11 0.10 0.11 0.10 0.09 0.08 0.06 0.06 0.07 0.07 0.07 0.07 0.12 0.17 0.15 0.11 0.12 0.10 0.08 0.07 0.07 0.11 0.09 0.09 0.10 0.07 0.05 0.05 0.06 0.05 0.05 0.07 0.10
0.04 0.02 0.02 0.03 0.03 0.03 0.04 0.07 0.11 0.10 0.11 0.09 0.08 0.07 0.08 0.08 0.07 0.07 0.07 0.08 0.07 0.09 0.12 0.15 0.16 0.14 0.14 0.13 0.11 0.10 0.08 0.09 0.09 0.09 0.08 0.07 0.05 0.04 0.05 0.03 0.03 0.04 0.07
0.03 0.03 0.03 0.02 0.02 0.03 0.04 0.06 0.10 0.12 0.10 0.07 0.07 0.08 0.08 0.07 0.08 0.08 0.08 0.07 0.05 0.06 0.08 0.07 0.10 0.11 0.14 0.15 0.13 0.11 0.09 0.09 0.09 0.09 0.07 0.05 0.05 0.04 0.04 0.05 0.05 0.05 0.06
0.02 0.01 0.02 0.03 0.02 0.02 0.03 0.05 0.09 0.11 0.11 0.09 0.08 0.08 0.08 0.07 0.07 0.07 0.09 0.08 0.06 0.06 0.07 0.08 0.10 0.12 0.18 0.19 0.15 0.11 0.09 0.11 0.11 0.09 0.09 0.06 0.04 0.03 0.04 0.04 0.05 0.05 0.05
0.02 0.01 0.01 0.03 0.02 0.02 0.02 0.04 0.06 0.08 0.08 0.07 0.08 0.07 0.06 0.06 0.06 0.07 0.08 0.07 0.07 0.07 0.08 0.10 0.11 0.12 0.12 0.10 0.10 0.09 0.10 0.10 0.10 0.10 0.09 0.08 0.05 0.03 0.03 0.04 0.04 0.04 0.04
0.02 0.03 0.02 0.01 0.02 0.02 0.02 0.03 0.04 0.06 0.07 0.06 0.06 0.05 0.05 0.06 0.07 0.07 0.07 0.05 0.06 0.08 0.09 0.08 0.07 0.07 0.07 0.07 0.06 0.05 0.05 0.07 0.08 0.09 0.08 0.09 0.08 0.07 0.08 0.06 0.05 0.04 0.03
0.02 0.04 0.03 0.02 0.02 0.02 0.02 0.03 0.03 0.04 0.05 0.04 0.04 0.05 0.05 0.04 0.05 0.06 0.07 0.08 0.07 0.07 0.07 0.07 0.08 0.08 0.06 0.05 0.04 0.05 0.04 0.05 0.07 0.08 0.09 0.10 0.10 0.10 0.08 0.05 0.04 0.04 0.04
0.01 0.03 0.04 0.03 0.03 0.03 0.03 0.03 0.03 0.04 0.06 0.06 0.06 0.05 0.03 0.04 0.04 0.05 0.07 0.07 0.06 0.07 0.07 0.08 0.08 0.06 0.06 0.06 0.04 0.04 0.05 0.04 0.06 0.08 0.08 0.08 0.09 0.08 0.06 0.06 0.05 0.05 0.04
0.01 0.03 0.04 0.03 0.03 0.04 0.04 0.05 0.04 0.05 0.04 0.04 0.03 0.03 0.03 0.03 0.03 0.04 0.04 0.06 0.04 0.06 0.06 0.07 0.06 0.05 0.06 0.05 0.04 0.05 0.05 0.05 0.07 0.07 0.06 0.07 0.08 0.07 0.06 0.07 0.07 0.06 0.05
0.03 0.03 0.03 0.03 0.02 0.02 0.04 0.05 0.05 0.05 0.04 0.04 0.03 0.04 0.03 0.03 0.04 0.05 0.05 0.04 0.03 0.05 0.07 0.06 0.05 0.05 0.04 0.05 0.05 0.07 0.06 0.06 0.06 0.04 0.05 0.06 0.06 0.05 0.06 0.07 0.08 0.06 0.05
0.02 0.02 0.02 0.03 0.03 0.02 0.03 0.03 0.05 0.04 0.04 0.06 0.06 0.05 0.04 0.04 0.04 0.06 0.05 0.05 0.04 0.04 0.05 0.04 0.03 0.03 0.04 0.05 0.06 0.07 0.06 0.06 0.06 0.05 0.05 0.05 0.05 0.05 0.06 0.07 0.07 0.06 0.05
0.02 0.04 0.04 0.03 0.03 0.03 0.03 0.03 0.04 0.05 0.06 0.06 0.06 0.06 0.04 0.04 0.05 0.06 0.06 0.06 0.06 0.05 0.05 0.03 0.03 0.03 0.04 0.04 0.05 0.06 0.05 0.06 0.06 0.05 0.05 0.05 0.05 0.05 0.05 0.06 0.07 0.07 0.05
0.05 0.06 0.07 0.04 0.05 0.07 0.08 0.06 0.09 0.07 0.06 0.05 0.05 0.05 0.05 0.04 0.04 0.04 0.05 0.05 0.04 0.05 0.06 0.06 0.06 0.04 0.05 0.05 0.04 0.05 0.07 0.08 0.07 0.07 0.07 0.06 0.05 0.04 0.04 0.05 0.05 0.06 0.06
0.03 0.04 0.04 0.03 0.03 0.05 0.06 0.07 0.09 0.06 0.05 0.06 0.05 0.04 0.04 0.04 0.03 0.03 0.05 0.05 0.04 0.04 0.05 0.05 0.05 0.05 0.05 0.05 0.05 0.06 0.06 0.06 0.07 0.06 0.06 0.06 0.04 0.03 0.03 0.03 0.03 0.03 0.05
MSLP
1006.07 1005.96 1006.04 1006.28 1006.61 1006.93 1007.19 1007.34 1007.42 1007.44 1007.50 1007.63 1007.87 1008.23 1008.66 1009.12 1009.55 1009.91 1010.19 1010.40 1010.59 1010.79 1011.02 1011.30 1011.62 1011.94 1012.24 1012.48 1012.66 1012.79 1012.90 1013.03 1013.19 1013.41 1013.67 1013.96 1014.24 1014.50 1014.70 1014.86 1014.97 1015.07 1015.18
1005.92 1005.95 1006.17 1006.51 1006.89 1007.22 1007.45 1007.56 1007.57 1007.54 1007.57 1007.70 1007.96 1008.36 1008.84 1009.34 1009.81 1010.19 1010.48 1010.70 1010.89 1011.09 1011.34 1011.63 1011.96 1012.28 1012.56 1012.77 1012.91 1012.99 1013.05 1013.14 1013.29 1013.51 1013.81 1014.14 1014.48 1014.77 1015.01 1015.17 1015.29 1015.37 1015.46
1005.62 1005.82 1006.20 1006.66 1007.13 1007.50 1007.72 1007.80 1007.77 1007.71 1007.72 1007.84 1008.13 1008.55 1009.05 1009.57 1010.03 1010.41 1010.69 1010.90 1011.09 1011.30 1011.56 1011.88 1012.23 1012.56 1012.83 1013.02 1013.11 1013.14 1013.16 1013.22 1013.35 1013.58 1013.90 1014.26 1014.63 1014.96 1015.22 1015.40 1015.51 1015.59 1015.67
1005.25 1005.61 1006.15 1006.75 1007.32 1007.75 1008.00 1008.08 1008.04 1007.97 1007.96 1008.08 1008.37 1008.79 1009.29 1009.80 1010.25 1010.60 1010.86 1011.05 1011.24 1011.46 1011.75 1012.10 1012.47 1012.82 1013.09 1013.25 1013.31 1013.30 1013.28 1013.30 1013.41 1013.64 1013.98 1014.37 1014.76 1015.11 1015.38 1015.57 1015.68 1015.76 1015.85
1004.86 1005.37 1006.05 1006.79 1007.46 1007.98 1008.27 1008.38 1008.35 1008.28 1008.27 1008.40 1008.68 1009.09 1009.58 1010.06 1010.47 1010.80 1011.03 1011.22 1011.41 1011.65 1011.97 1012.34 1012.74 1013.09 1013.36 1013.50 1013.53 1013.48 1013.43 1013.42 1013.53 1013.76 1014.10 1014.50 1014.91 1015.27 1015.55 1015.74 1015.85 1015.93 1016.01
1004.54 1005.16 1005.96 1006.80 1007.57 1008.15 1008.51 1008.65 1008.65 1008.61 1008.62 1008.75 1009.04 1009.44 1009.90 1010.35 1010.74 1011.03 1011.25 1011.44 1011.64 1011.91 1012.25 1012.65 1013.06 1013.41 1013.66 1013.78 1013.77 1013.70 1013.61 1013.60 1013.70 1013.93 1014.28 1014.70 1015.12 1015.48 1015.75 1015.93 1016.03 1016.10 1016.18
1004.36 1005.03 1005.89 1006.80 1007.63 1008.26 1008.67 1008.86 1008.90 1008.90 1008.94 1009.10 1009.39 1009.79 1010.23 1010.66 1011.03 1011.31 1011.53 1011.73 1011.95 1012.24 1012.60 1013.01 1013.42 1013.75 1013.97 1014.05 1014.01 1013.91 1013.81 1013.78 1013.89 1014.14 1014.50 1014.94 1015.36 1015.72 1015.99 1016.15 1016.23 1016.29 1016.36
1004.32 1005.01 1005.88 1006.80 1007.64 1008.29 1008.73 1008.96 1009.06 1009.10 1009.19 1009.39 1009.70 1010.10 1010.55 1010.97 1011.33 1011.62 1011.85 1012.06 1012.31 1012.62 1012.99 1013.39 1013.78 1014.07 1014.24 1014.27 1014.19 1014.06 1013.94 1013.92 1014.04 1014.32 1014.71 1015.16 1015.60 1015.97 1016.22 1016.37 1016.43 1016.46 1016.52
1004.43 1005.08 1005.91 1006.79 1007.60 1008.24 1008.69 1008.95 1009.09 1009.20 1009.34 1009.59 1009.93 1010.36 1010.81 1011.24 1011.61 1011.91 1012.16 1012.40 1012.67 1012.99 1013.35 1013.73 1014.06 1014.30 1014.40 1014.38 1014.25 1014.08 1013.96 1013.95 1014.10 1014.41 1014.84 1015.32 1015.78 1016.16 1016.41 1016.55 1016.59 1016.61 1016.65
1004.64 1005.24 1005.99 1006.79 1007.53 1008.13 1008.56 1008.84 1009.02 1009.19 1009.40 1009.69 1010.08 1010.53 1011.00 1011.44 1011.83 1012.14 1012.42 1012.67 1012.96 1013.27 1013.61 1013.94 1014.22 1014.38 1014.41 1014.31 1014.14 1013.95 1013.83 1013.84 1014.02 1014.38 1014.85 1015.37 1015.86 1016.26 1016.52 1016.66 1016.69 1016.69 1016.71
1004.90 1005.43 1006.09 1006.79 1007.44 1007.98 1008.38 1008.67 1008.89 1009.11 1009.38 1009.73 1010.15 1010.63 1011.11 1011.56 1011.95 1012.28 1012.57 1012.84 1013.12 1013.43 1013.73 1014.01 1014.21 1014.29 1014.25 1014.09 1013.87 1013.66 1013.55 1013.59 1013.81 1014.21 1014.73 1015.30 1015.82 1016.25 1016.53 1016.68 1016.72 1016.71 1016.71
1005.15 1005.62 1006.18 1006.78 1007.33 1007.81 1008.18 1008.48 1008.74 1009.01 1009.33 1009.72 1010.18 1010.66 1011.15 1011.60 1011.99 1012.32 1012.61 1012.88 1013.16 1013.43 1013.70 1013.91 1014.05 1014.06 1013.95 1013.74 1013.50 1013.29 1013.19 1013.25 1013.51 1013.95 1014.51 1015.11 1015.67 1016.13 1016.44 1016.61 1016.66 1016.66 1016.66
1005.34 1005.75 1006.23 1006.74 1007.23 1007.65 1008.01 1008.32 1008.61 1008.92 1009.29 1009.71 1010.17 1010.66 1011.13 1011.56 1011.93 1012.25 1012.53 1012.80 1013.06 1013.31 1013.54 1013.71 1013.78 1013.74 1013.59 1013.36 1013.10 1012.90 1012.82 1012.91 1013.20 1013.66 1014.24 1014.86 1015.44 1015.92 1016.26 1016.46 1016.54 1016.55 1016.55
1005.42 1005.79 1006.22 1006.67 1007.11 1007.50 1007.86 1008.19 1008.52 1008.88 1009.27 1009.70 1010.16 1010.62 1011.06 1011.46 1011.80 1012.10 1012.37 1012.63 1012.88 1013.11 1013.31 1013.45 1013.49 1013.42 1013.25 1013.02 1012.77 1012.59 1012.53 1012.64 1012.94 1013.40 1013.97 1014.58 1015.16 1015.64 1016.00 1016.22 1016.33 1016.37 1016.38
1005.37 1005.73 1006.13 1006.55 1006.96 1007.36 1007.74 1008.10 1008.47 1008.86 1009.27 1009.70 1010.14 1010.56 1010.96 1011.31 1011.62 1011.90 1012.15 1012.40 1012.65 1012.88 1013.07 1013.20 1013.23 1013.17 1013.01 1012.80 1012.58 1012.42 1012.38 1012.50 1012.78 1013.21 1013.74 1014.30 1014.84 1015.30 1015.65 1015.88 1016.02 1016.09 1016.13
1005.22 1005.56 1005.94 1006.35 1006.78 1007.20 1007.62 1008.03 1008.44 1008.86 1009.28 1009.69 1010.09 1010.46 1010.81 1011.11 1011.39 1011.65 1011.90 1012.16 1012.42 1012.66 1012.86 1013.01 1013.06 1013.02 1012.90 1012.73 1012.56 1012.43 1012.40 1012.50 1012.74 1013.10 1013.54 1014.01 1014.46 1014.86 1015.18 1015.41 1015.57 1015.67 1015.75
1004.98 1005.31 1005.68 1006.10 1006.55 1007.02 1007.49 1007.95 1008.40 1008.84 1009.26 1009.65 1010.00 1010.32 1010.61 1010.87 1011.12 1011.38 1011.64 1011.92 1012.20 1012.48 1012.71 1012.88 1012.98 1012.99 1012.92 1012.80 1012.67 1012.58 1012.55 1012.62 1012.78 1013.04 1013.35 1013.69 1014.02 1014.33 1014.58 1014.78 1014.95 1015.09 1015.22
1004.73 1005.03 1005.40 1005.83 1006.31 1006.82 1007.34 1007.85 1008.34 1008.79 1009.20 1009.55 1009.86 1010.12 1010.37 1010.60 1010.83 1011.09 1011.38 1011.69 1012.01 1012.32 1012.60 1012.82 1012.96 1013.02 1013.01 1012.95 1012.87 1012.80 1012.77 1012.79 1012.87 1012.99 1013.16 1013.34 1013.51 1013.68 1013.85 1014.01 1014.17 1014.34 1014.52
1004.51 1004.78 1005.14 1005.58 1006.08 1006.63 1007.19 1007.74 1008.25 1008.71 1009.10 1009.42 1009.68 1009.90 1010.10 1010.31 1010.54 1010.80 1011.12 1011.46 1011.82 1012.18 1012.49 1012.76 1012.95 1013.07 1013.11 1013.11 1013.08 1013.03 1012.99 1012.96 1012.95 1012.94 1012.94 1012.94 1012.95 1012.97 1013.02 1013.12 1013.26 1013.46 1013.69
1004.38 1004.62 1004.96 1005.39 1005.91 1006.48 1007.07 1007.64 1008.17 1008.62 1008.99 1009.28 1009.50 1009.67 1009.84 1010.02 1010.25 1010.53 1010.86 1011.23 1011.63 1012.02 1012.37 1012.67 1012.90 1013.07 1013.18 1013.23 1013.24 1013.22 1013.17 1013.10 1013.00 1012.87 1012.71 1012.54 1012.38 1012.26 1012.19 1012.21 1012.32 1012.53 1012.80
1004.39 1004.59 1004.90 1005.33 1005.84 1006.42 1007.01 1007.59 1008.12 1008.56 1008.90 1009.16 1009.34 1009.48 1009.61 1009.77 1009.99 1010.27 1010.61 1011.00 1011.41 1011.82 1012.19 1012.52 1012.78 1012.99 1013.14 1013.25 1013.30 1013.32 1013.28 1013.18 1013.02 1012.79 1012.51 1012.20 1011.90 1011.64 1011.46 1011.39 1011.46 1011.66 1011.96
1004.52 1004.70 1004.99 1005.39 1005.89 1006.44 1007.03 1007.60 1008.11 1008.54 1008.86 1009.08 1009.23 1009.34 1009.44 1009.58 1009.77 1010.04 1010.37 1010.75 1011.16 1011.56 1011.94 1012.28 1012.57 1012.81 1013.00 1013.15 1013.26 1013.31 1013.30 1013.20 1013.02 1012.74 1012.38 1011.98 1011.57 1011.20 1010.92 1010.78 1010.79 1010.96 1011.27
1004.77 1004.94 1005.21 1005.57 1006.03 1006.56 1007.12 1007.67 1008.16 1008.57 1008.87 1009.07 1009.19 1009.26 1009.34 1009.44 1009.60 1009.83 1010.13 1010.49 1010.87 1011.25 1011.62 1011.95 1012.25 1012.51 1012.75 1012.94 1013.10 1013.20 1013.23 1013.17 1013.00 1012.72 1012.34 1011.90 1011.43 1011.00 1010.66 1010.45 1010.40 1010.53 1010.80
1005.08 1005.25 1005.49 1005.82 1006.23 1006.72 1007.24 1007.75 1008.22 1008.61 1008.90 1009.08 1009.18 1009.23 1009.27 1009.34 1009.45 1009.64 1009.89 1010.19 1010.53 1010.88 1011.23 1011.55 1011.85 1012.13 1012.39 1012.62 1012.83 1012.99 1013.08 1013.07 1012.96 1012.72 1012.37 1011.94 1011.48 1011.03 1010.66 1010.40 1010.30 1010.37 1010.59
1005.39 1005.56 1005.78 1006.06 1006.43 1006.86 1007.33 1007.81 1008.25 1008.62 1008.90 1009.08 1009.17 1009.20 1009.21 1009.24 1009.30 1009.43 1009.63 1009.88 1010.16 1010.47 1010.78 1011.09 1011.38 1011.67 1011.94 1012.21 1012.45 1012.66 1012.81 1012.88 1012.83 1012.67 1012.40 1012.04 1011.63 1011.22 1010.85 1010.58 1010.43 1010.44 1010.58
1005.66 1005.82 1006.00 1006.24 1006.54 1006.91 1007.33 1007.77 1008.19 1008.56 1008.83 1009.01 1009.10 1009.12 1009.11 1009.10 1009.12 1009.20 1009.33 1009.53 1009.77 1010.03 1010.31 1010.59 1010.88 1011.15 1011.43 1011.71 1011.97 1012.21 1012.41 1012.54 1012.58 1012.51 1012.35 1012.10 1011.78 1011.44 1011.12 1010.86 1010.70 1010.65 1010.72
Thickness
5813 5812 5808 5807 5805 5803 5803 5803 5801 5798 5797 5796 5794 5794 5793 5791 5790 5789 5788 5787 5786 5784 5783 5782 5780 5779 5777 5776 5776 5775 5774 5774 5773 5771 5770 5769 5768 5767 5766 5765 5764 5764 5763
5817 5812 5808 5806 5804 5803 5802 5801 5800 5798 5796 5795 5794 5793 5792 5790 5789 5788 5787 5786 5785 5784 5782 5781 5780 5778 5777 5776 5776 5775 5774 5773 5772 5771 5770 5769 5768 5767 5766 5765 5764 5763 5762
5818 5813 5808 5805 5804 5802 5801 5799 5798 5797 5796 5794 5793 5792 5791 5789 5789 5788 5787 5786 5785 5784 5782 5781 5779 5778 5777 5776 5775 5775 5773 5773 5772 5772 5771 5770 5769 5767 5766 5765 5764 5763 5762
5820 5814 5809 5805 5804 5802 5800 5799 5797 5796 5795 5793 5792 5791 5790 5789 5788 5788 5787 5786 5785 5784 5782 5781 5780 5778 5777 5776 5775 5774 5773 5773 5772 5772 5771 5771 5770 5768 5767 5766 5765 5764 5762
5821 5815 5808 5806 5804 5802 5800 5798 5797 5795 5794 5792 5791 5790 5790 5789 5788 5788 5787 5786 5785 5784 5782 5781 5780 5779 5777 5776 5775 5774 5773 5773 5773 5772 5773 5772 5772 5769 5768 5767 5765 5764 5763
5821 5816 5809 5806 5804 5802 5800 5798 5797 5795 5794 5792 5791 5790 5790 5789 5788 5788 5787 5786 5785 5784 5783 5782 5781 5779 5778 5776 5775 5775 5774 5773 5773 5774 5775 5774 5772 5770 5769 5767 5766 5764 5763
5822 5816 5810 5806 5804 5802 5800 5798 5797 5795 5794 5792 5791 5791 5790 5790 5789 5788 5788 5787 5786 5785 5784 5783 5782 5780 5779 5777 5776 5775 5775 5775 5775 5776 5775 5775 5773 5771 5770 5768 5767 5765 5764
5824 5817 5810 5806 5804 5802 5801 5799 5797 5796 5794 5793 5792 5791 5791 5790 5790 5789 5788 5787 5787 5786 5785 5784 5783 5781 5780 5779 5777 5777 5776 5776 5778 5778 5777 5776 5774 5772 5771 5769 5767 5766 5764
5826 5819 5813 5808 5805 5803 5801 5800 5798 5797 5795 5794 5793 5792 5792 5791 5790 5790 5789 5788 5788 5787 5786 5785 5784 5783 5782 5780 5779 5779 5778 5778 5778 5779 5779 5777 5775 5773 5771 5769 5768 5766 5764
5826 5822 5817 5813 5809 5806 5803 5800 5799 5798 5796 5795 5794 5793 5793 5792 5792 5791 5790 5790 5789 5788 5787 5786 5786 5785 5783 5782 5781 5781 5780 5780 5780 5780 5779 5777 5775 5774 5772 5770 5768 5766 5765
5824 5823 5821 5817 5813 5810 5807 5804 5801 5799 5797 5796 5795 5794 5794 5794 5794 5793 5792 5791 5790 5790 5789 5788 5787 5786 5785 5783 5783 5783 5782 5782 5783 5781 5779 5778 5776 5774 5772 5770 5768 5766 5764
5819 5821 5822 5819 5816 5814 5811 5806 5804 5802 5799 5798 5797 5796 5795 5796 5795 5795 5794 5792 5791 5791 5790 5790 5789 5788 5786 5786 5786 5785 5784 5785 5784 5783 5780 5778 5776 5774 5772 5770 5768 5766 5765
5821 5822 5822 5819 5817 5815 5812 5808 5807 5805 5802 5801 5799 5798 5798 5797 5797 5796 5795 5793 5792 5791 5791 5791 5789 5789 5789 5789 5788 5787 5786 5786 5785 5783 5779 5778 5776 5774 5772 5770 5768 5766 5765
5822 5821 5822 5820 5817 5815 5813 5811 5809 5807 5804 5803 5801 5800 5799 5798 5798 5797 5796 5795 5794 5794 5793 5793 5792 5791 5790 5790 5789 5788 5787 5787 5786 5783 5779 5778 5777 5774 5772 5770 5768 5766 5764
5822 5822 5821 5819 5816 5814 5811 5810 5810 5808 5806 5804 5803 5801 5800 5799 5798 5798 5796 5796 5795 5795 5794 5793 5792 5791 5790 5790 5789 5789 5787 5786 5786 5783 5779 5778 5777 5774 5772 5770 5768 5766 5765
5822 5821 5821 5818 5815 5812 5810 5809 5809 5808 5806 5805 5803 5801 5800 5800 5799 5798 5796 5795 5795 5795 5794 5793 5792 5791 5790 5789 5788 5788 5786 5785 5784 5783 5780 5778 5776 5774 5772 5770 5768 5766 5765
5824 5823 5820 5818 5815 5812 5810 5809 5809 5808 5807 5805 5803 5802 5800 5800 5799 5798 5797 5795 5795 5795 5794 5792 5792 5791 5789 5789 5787 5787 5786 5785 5784 5782 5780 5778 5775 5773 5772 5770 5768 5766 5764
5826 5822 5820 5820 5814 5811 5810 5808 5809 5808 5806 5805 5803 5802 5800 5800 5799 5797 5796 5795 5795 5795 5793 5791 5789 5788 5786 5786 5785 5786 5787 5786 5784 5783 5781 5779 5776 5774 5771 5769 5767 5766 5764
5827 5822 5819 5818 5814 5811 5809 5808 5806 5806 5805 5804 5802 5801 5800 5799 5798 5797 5796 5795 5795 5794 5792 5790 5788 5786 5783 5783 5784 5786 5786 5785 5784 5783 5781 5779 5777 5774 5772 5769 5767 5765 5763
5828 5823 5819 5816 5814 5811 5809 5807 5805 5804 5803 5802 5801 5800 5799 5798 5798 5797 5796 5794 5794 5792 5789 5788 5785 5785 5783 5782 5783 5784 5784 5785 5784 5782 5780 5779 5776 5774 5772 5770 5766 5764 5762
5828 5822 5819 5815 5813 5810 5807 5804 5801 5799 5800 5800 5801 5799 5798 5797 5796 5795 5793 5792 5791 5789 5787 5785 5783 5781 5780 5781 5777 5775 5779 5783 5781 5781 5779 5777 5775 5773 5771 5769 5766 5763 5761
5827 5822 5819 5815 5812 5809 5807 5805 5803 5801 5800 5800 5800 5798 5797 5795 5794 5795 5791 5790 5789 5787 5785 5783 5780 5777 5777 5778 5772 5766 5764 5768 5773 5778 5776 5773 5772 5771 5769 5767 5764 5762 5760
5828 5824 5821 5816 5813 5810 5808 5805 5802 5799 5797 5796 5794 5794 5794 5793 5792 5791 5789 5788 5787 5785 5782 5780 5778 5775 5771 5773 5773 5765 5756 5753 5759 5768 5770 5770 5768 5767 5766 5765 5762 5760 5758
5830 5827 5822 5817 5813 5810 5808 5804 5799 5794 5790 5790 5791 5791 5792 5791 5790 5789 5787 5785 5784 5782 5779 5778 5777 5774 5770 5766 5768 5768 5765 5760 5752 5752 5759 5763 5764 5763 5762 5762 5759 5757 5755
5833 5828 5823 5817 5812 5810 5807 5803 5797 5794 5792 5791 5790 5788 5788 5788 5788 5786 5784 5782 5780 5778 5776 5774 5773 5770 5768 5765 5763 5762 5761 5759 5756 5748 5745 5750 5754 5757 5758 5758 5756 5754 5752
5833 5828 5822 5815 5811 5809 5805 5801 5796 5792 5790 5787 5785 5784 5783 5783 5783 5782 5782 5779 5777 5774 5772 5770 5769 5767 5764 5763 5761 5759 5756 5752 5750 5747 5743 5743 5745 5750 5753 5754 5752 5750 5748